Back to catalog

RADUGA 1-1

AliveCommunicationsGEO
NORAD 20083·PAYLOAD·🇷🇺 Russia

Launched Jun 21, 1989 from Baikonur Cosmodrome

Loading…

TLE

FreshSource: Space-Track

Epoch: Sep 13, 2026, 22:28 UTC

1 20083U 89048A   26256.93636281 -.00000148  00000-0  00000-0 0  9995
2 20083  12.6366 334.6310 0018572 153.9235 215.6823  0.98710437132158

Track RADUGA 1-1 in real time with AllMySat

Download on the App Store